DC4THF-13 Weather Reports


time (UTC)temp
C
wind
direction
speed
KPH
gust
KPH
rain 1hr
cm
rain 24hr
cm
rain mn
cm
humidity
%
barometer
mb
20260507074242 8 354 6.4 11.3 0.00 0.13 0.00 80 1007.6
20260507073238 7 0 3.2 8.0 0.00 0.13 0.00 80 1007.5
20260507072234 7 350 4.8 9.7 0.00 0.13 0.00 80 1007.4
20260507071231 7 9 4.8 11.3 0.00 0.15 0.00 80 1007.4
20260507070228 7 345 6.4 14.5 0.00 0.18 0.00 80 1007.4
20260507065224 7 349 6.4 16.1 0.00 0.18 0.00 80 1007.3
20260507064221 7 302 4.8 11.3 0.00 0.20 0.00 80 1007.2
20260507063218 7 342 4.8 12.9 0.00 0.23 0.00 80 1007.1
20260507062315 7 0 3.2 11.3 0.00 0.28 0.00 80 1007.1
20260507061311 7 337 6.4 17.7 0.00 0.30 0.00 80 1006.8
20260507060308 7 10 4.8 9.7 0.00 0.36 0.00 80 1006.7
20260507055306 7 356 3.2 8.0 0.00 0.43 0.00 80 1006.5
20260507054302 7 326 3.2 6.4 0.00 0.46 0.00 80 1006.4
20260507053258 7 339 4.8 6.4 0.00 0.48 0.00 80 1006.4
20260507052255 7 90 1.6 6.4 0.00 0.51 0.00 81 1006.3
20260507051252 7 39 4.8 8.0 0.00 0.53 0.00 81 1006.3
20260507050249 7 335 4.8 8.0 0.00 0.56 0.00 87 1006.2
20260507045246 7 334 3.2 6.4 0.00 0.61 0.00 88 1006.2
20260507044242 7 316 4.8 9.7 0.00 0.66 0.00 88 1006.0
20260507043239 7 0.0 1.6 0.00 0.66 0.00 88 1006.0
20260507042236 7 0 3.2 6.4 0.00 0.69 0.00 88 1006.0
20260507041233 7 344 4.8 11.3 0.00 0.71 0.00 88 1005.9
20260507040230 7 350 4.8 9.7 0.00 0.71 0.00 88 1005.7
20260507035227 7 350 3.2 9.7 0.00 0.71 0.00 88 1005.7
20260507034223 7 27 1.6 4.8 0.00 0.76 0.00 88 1005.7
20260507033220 7 353 4.8 12.9 0.00 0.79 0.00 88 1005.4
20260507032217 7 0 4.8 8.0 0.00 0.79 0.00 88 1005.5
20260507031314 7 17 3.2 6.4 0.00 0.81 0.00 88 1005.5
20260507030311 7 354 6.4 12.9 0.00 0.84 0.00 88 1005.5
20260507025308 7 343 6.4 12.9 0.00 0.84 0.00 88 1005.4
20260507024304 7 16 3.2 8.0 0.00 0.86 0.00 87 1005.2
20260507023300 7 22 1.6 8.0 0.00 0.89 0.00 87 1005.2
20260507022257 7 19 1.6 9.7 0.00 0.94 0.00 87 1005.2
20260507021252 7 0 0.0 6.4 0.00 0.99 0.00 87 1005.1
20260507020249 7 43 3.2 6.4 0.00 1.02 0.00 87 1005.1
20260507015245 7 307 3.2 6.4 0.00 1.04 0.00 87 1005.1
20260507014241 7 347 4.8 9.7 0.00 1.09 0.00 86 1004.8
20260507013238 7 327 4.8 9.7 0.00 1.09 0.00 86 1004.8
20260507012234 7 333 6.4 11.3 0.00 1.14 0.00 86 1004.8
20260507011230 7 336 6.4 14.5 0.00 1.17 0.00 86 1004.7
20260507010227 7 329 8.0 12.9 0.00 1.17 0.00 86 1004.7
20260507005224 7 340 6.4 11.3 0.00 1.19 0.00 82 1004.7
20260507004221 7 322 6.4 12.9 0.00 1.27 0.00 82 1004.5
20260507003217 7 11 4.8 8.0 0.00 1.32 0.00 81 1004.2
20260507002315 8 0 6.4 14.5 0.00 1.35 0.00 81 1004.2
20260507001311 8 24 6.4 12.9 0.00 1.37 0.00 81 1004.0
20260507000308 8 323 8.0 14.5 0.00 1.42 0.00 81 1003.9
20260506235306 9 333 4.8 12.9 0.00 1.45 0.00 81 1003.9
20260506234301 9 340 4.8 9.7 0.00 1.45 0.00 80 1003.8
20260506233258 9 158 4.8 8.0 0.00 1.47 0.00 80 1003.8
20260506232255 10 295 8.0 17.7 0.00 1.47 0.00 80 1003.8
20260506231252 10 314 6.4 14.5 0.00 1.47 0.00 80 1003.8
20260506230248 10 352 4.8 11.3 0.00 1.47 0.00 80 1003.7
20260506225245 10 339 6.4 12.9 0.00 1.47 0.00 80 1003.7
20260506224242 10 11 4.8 8.0 0.00 1.50 0.00 80 1003.6
20260506223239 10 329 4.8 11.3 0.00 1.50 0.00 80 1003.6
20260506222236 10 328 3.2 6.4 0.00 1.50 0.00 80 1003.6
20260506221232 10 333 4.8 9.7 0.00 1.50 0.00 80 1003.5
20260506220229 10 315 6.4 11.3 0.00 1.50 0.00 81 1003.5
20260506215226 10 338 6.4 12.9 0.00 1.50 1.50 83 1003.5
20260506214223 10 351 3.2 9.7 0.00 1.50 1.50 83 1003.5
20260506213220 10 0 3.2 6.4 0.00 1.50 1.50 84 1003.3
20260506212216 10 0 1.6 4.8 0.00 1.50 1.50 84 1003.3
20260506211314 10 0 3.2 4.8 0.00 1.50 1.50 83 1003.2
20260506210310 10 350 3.2 8.0 0.00 1.50 1.50 83 1003.3
20260506205307 10 329 1.6 3.2 0.00 1.50 1.50 83 1003.3
20260506204304 10 17 3.2 6.4 0.00 1.50 1.50 83 1003.2
20260506203300 10 0 3.2 6.4 0.00 1.50 1.50 82 1003.0
20260506202257 10 328 1.6 6.4 0.00 1.50 1.50 82 1003.2
20260506201253 10 6 3.2 8.0 0.00 1.50 1.50 81 1003.0
20260506200248 10 334 6.4 12.9 0.00 1.50 1.50 81 1002.8
20260506195245 10 6 4.8 12.9 0.00 1.50 1.50 83 1003.0
20260506194241 10 10 3.2 6.4 0.00 1.50 1.50 83 1002.9
20260506193237 10 328 3.2 11.3 0.00 1.50 1.50 83 1002.8
20260506192233 10 333 3.2 6.4 0.00 1.50 1.50 83 1002.7
20260506191301 10 328 3.2 6.4 0.00 1.50 1.50 82 1002.6
20260506190256 11 14 3.2 6.4 0.00 1.50 1.50 82 1002.4
20260506185253 11 354 4.8 9.7 0.00 1.50 1.50 81 1002.4
20260506184249 11 296 6.4 12.9 0.00 1.50 1.50 81 1002.2
20260506183244 12 346 6.4 16.1 0.00 1.50 1.50 81 1002.2
20260506182241 12 306 4.8 12.9 0.00 1.50 1.50 81 1002.0
20260506181237 12 330 3.2 6.4 0.00 1.50 1.50 81 1001.9
20260506180233 12 355 1.6 6.4 0.00 1.50 1.50 81 1001.8
20260506175229 12 314 6.4 12.9 0.00 1.50 1.50 78 1001.7
20260506174225 12 349 4.8 11.3 0.00 1.50 1.50 78 1001.5
20260506173222 12 16 4.8 9.7 0.00 1.50 1.50 77 1001.4
20260506172219 12 338 0.0 3.2 0.00 1.50 1.50 76 1001.4
20260506171215 12 61 3.2 6.4 0.00 1.50 1.50 76 1001.4
20260506170312 13 310 4.8 8.0 0.00 1.50 1.50 74 1001.3
20260506165309 13 339 4.8 11.3 0.00 1.50 1.50 74 1001.1
20260506164306 13 0 3.2 6.4 0.00 1.50 1.50 72 1001.1
20260506163303 13 345 6.4 12.9 0.00 1.50 1.50 72 1001.1
20260506162259 15 346 3.2 9.7 0.00 1.50 1.50 73 1001.3
20260506161256 15 341 4.8 11.3 0.00 1.50 1.50 72 1001.2
20260506160253 15 254 6.4 9.7 0.00 1.50 1.50 72 1001.3
20260506155250 13 192 3.2 6.4 0.00 1.50 1.50 78 1001.4
20260506154247 13 346 6.4 14.5 0.00 1.50 1.50 78 1001.5
20260506153243 13 285 4.8 9.7 0.00 1.50 1.50 78 1001.7
20260506152240 13 345 6.4 9.7 0.00 1.50 1.50 75 1001.7
20260506151237 13 311 4.8 8.0 0.00 1.50 1.50 77 1001.6
20260506150234 13 342 4.8 8.0 0.00 1.50 1.50 78 1001.6
20260506145231 13 346 3.2 6.4 0.00 1.50 1.50 80 1001.4
20260506143224 13 342 6.4 9.7 0.00 1.50 1.50 76 1001.5
20260506142221 13 321 4.8 9.7 0.00 1.50 1.50 76 1001.4
20260506141218 13 347 3.2 6.4 0.00 1.50 1.50 79 1001.4
20260506140215 13 19 3.2 6.4 0.00 1.50 1.50 78 1001.4
20260506135312 13 350 4.8 6.4 0.00 1.50 1.50 78 1001.4
20260506134308 13 340 6.4 9.7 0.00 1.50 1.50 77 1001.4
20260506133305 13 339 4.8 14.5 0.00 1.50 1.50 79 1001.4
20260506132302 13 313 1.6 4.8 0.00 1.50 1.50 78 1001.4
20260506131258 13 351 4.8 8.0 0.00 1.50 1.50 77 1001.4
20260506130254 13 338 4.8 8.0 0.00 1.50 1.50 77 1001.3
20260506125251 13 314 4.8 9.7 0.00 1.50 1.50 80 1001.2
20260506124246 13 314 3.2 6.4 0.00 1.50 1.50 81 1001.4
20260506123242 13 331 3.2 4.8 0.00 1.50 1.50 81 1001.5
20260506122238 13 328 4.8 6.4 0.00 1.50 1.50 81 1001.4
20260506121234 13 341 3.2 6.4 0.00 1.50 1.50 81 1001.4
20260506120230 12 324 1.6 3.2 0.00 1.50 1.50 81 1001.4
20260506115226 12 310 1.6 6.4 0.00 1.50 1.50 81 1001.3
20260506114223 12 277 3.2 4.8 0.00 1.50 1.50 80 1001.2
20260506113220 13 259 3.2 4.8 0.00 1.50 1.50 80 1001.3
20260506112217 13 333 3.2 6.4 0.00 1.50 1.50 81 1001.1
20260506111314 13 342 1.6 6.4 0.00 1.50 1.50 81 1001.0
20260506110311 12 328 4.8 8.0 0.00 1.50 1.50 83 1000.6
20260506105308 12 321 4.8 6.4 0.00 1.50 1.50 83 1000.6
20260506104304 12 350 4.8 8.0 0.00 1.50 1.50 86 1000.6
20260506103301 12 294 4.8 9.7 0.00 1.50 1.50 84 1000.6
20260506102258 13 327 4.8 8.0 0.00 1.50 1.50 87 1000.6
20260506101255 12 343 3.2 6.4 0.00 1.50 1.50 91 1000.4
20260506100252 12 11 6.4 11.3 0.03 1.50 1.50 93 1000.3
20260506095248 12 310 6.4 11.3 0.05 1.50 1.50 97 1000.3
20260506094245 12 304 6.4 12.9 0.05 1.50 1.50 99 1000.2
20260506093242 11 323 4.8 9.7 0.05 1.50 1.50 99 1000.0
20260506092239 12 292 8.0 12.9 0.05 1.50 1.50 99 1000.0
20260506091236 12 294 3.2 6.4 0.10 1.50 1.50 99 999.8
20260506090232 12 315 4.8 9.7 0.05 1.47 1.47 99 999.8
20260506085229 11 316 3.2 6.4 0.03 1.45 1.45 99 999.8
20260506084226 11 317 3.2 6.4 0.05 1.45 1.45 99 999.9
20260506083223 11 334 3.2 4.8 0.05 1.45 1.45 99 999.7
20260506082219 11 311 3.2 6.4 0.05 1.45 1.45 99 999.7
20260506081216 11 315 3.2 6.4 0.05 1.42 1.42 99 999.5
20260506080313 11 316 4.8 8.0 0.10 1.42 1.42 99 999.5